This is the latest recevied weather packets stored in our database for station/object EA5GK-10. If no packets are shown the sender has not sent any weather packets the latest 10 day(s).
| Time | Temp. | Humidity | Pressure | Rain* | Wind** | Luminosity | Snow |
|---|---|---|---|---|---|---|---|
| 1787641793 | 25.56° C | 41% | 1016.7 hPa | - | - | - | - |
| 1787640893 | 25° C | 43% | 1016.7 hPa | - | - | - | - |
| 1787639993 | 23.89° C | 45% | 1016.8 hPa | - | - | - | - |
| 1787639092 | 22.78° C | 47% | 1016.7 hPa | - | - | - | - |
| 1787638192 | 22.78° C | 47% | 1016.6 hPa | - | - | - | - |
| 1787637292 | 22.22° C | 47% | 1016.5 hPa | - | - | - | - |
| 1787636392 | 22.22° C | 48% | 1016.4 hPa | - | - | - | - |
| 1787635492 | 22.78° C | 48% | 1016.2 hPa | - | - | - | - |
| 1787634592 | 22.78° C | 47% | 1016 hPa | - | - | - | - |
| 1787633691 | 22.78° C | 47% | 1015.9 hPa | - | - | - | - |
| 1787632791 | 23.33° C | 47% | 1016 hPa | - | - | - | - |
| 1787631891 | 23.33° C | 47% | 1015.9 hPa | - | - | - | - |
| 1787630991 | 23.33° C | 47% | 1015.9 hPa | - | - | - | - |
| 1787630091 | 23.89° C | 47% | 1015.8 hPa | - | - | - | - |
| 1787629191 | 23.89° C | 46% | 1015.8 hPa | - | - | - | - |
| 1787628291 | 23.89° C | 47% | 1015.6 hPa | - | - | - | - |
| 1787627391 | 23.89° C | 47% | 1015.7 hPa | - | - | - | - |
| 1787626491 | 24.44° C | 46% | 1015.9 hPa | - | - | - | - |
| 1787625590 | 24.44° C | 46% | 1015.8 hPa | - | - | - | - |
| 1787624690 | 24.44° C | 46% | 1015.6 hPa | - | - | - | - |
| 1787623790 | 25° C | 46% | 1015.6 hPa | - | - | - | - |
| 1787622890 | 25° C | 46% | 1015.6 hPa | - | - | - | - |
| 1787621990 | 25° C | 46% | 1015.7 hPa | - | - | - | - |
| 1787621090 | 25.56° C | 46% | 1015.6 hPa | - | - | - | - |
| 1787620190 | 25.56° C | 45% | 1015.6 hPa | - | - | - | - |
* Rain since midnight (hover to see other rain measurements)
** Current wind speed in m/s (hover to see current wind gust speed)